SCP
0 0 0 0 0 0 0 0 0 0 0 0 0 0 0 0 0 0 0 0 0 0 0 0 0 0 0 0 0 0 0 0 0 0 0 0 0 0 0 0 0 0 0 0
0 0 0 0 0 0 0 0 0 0 0 0 0 0 0 0 0 0 0 0 0 0 0 0 0 0 0 0 0 0 0 0 0 0 0 0 0 0 0 0 0 0 0 0
0 0 0 0 0 0 0 0 0 0 0 0 0 0 0 0 0 0 0 0 0 0 0 0 0 0 0 0 0 0 0 0 0 0 0 0 0 0 0 0 0 0 0 0
0 0 0 0 0 0 0 0 0 0 0 0 0 0 0 0 0 0 0 0 0 0 0 0 0 0 0 0 0 0 0 0 0 0 0 0 0 0 0 0 0 0 0 0
0 0 0 0 0 0 0 0 0 0 0 0 0 0 0 0 0 0 0 0 0 0 0 0 0 0 0 0 0 0 0 0 0 0 0 0 0 0 0 0 0 0 0 0
0 0 0 0 0 0 0 0 0 0 0 0 0 0 0 0 0 0 0 0 0 0 0 0 0 0 0 0 0 0 0 0 0 0 0 0 0 0 0 0 0 0 0 0
0 0 0 0 0 0 0 0 0 0 0 0 0 0 0 0 0 0 0 0 0 0 0 0 0 0 0 0 0 0 0 0 0 0 0 0 0 0 0 0 0 0 0 0
0 0 0 0 0 0 0 0 0 0 0 0 0 0 0 0 0 0 0 0 0 0 0 0 0 0 0 0 0 0 0 0 0 0 0 0 0 0 0 0 0 0 0 0
0 0 0 0 0 0 0 0 0 0 0 0 0 0 0 0 0 0 0 0 0 0 0 0 0 0 0 0 0 0 0 0 0 0 0 0 0 0 0 0 0 0 0 0
0 0 0 0 0 0 0 0 0 0 0 0 0 0 0 0 0 0 0 0 0 0 0 0 0 0 0 0 0 0 0 0 0 0 0 0 0 0 0 0 0 0 0 0
0 0 0 0 0 0 0 0 0 0 0 0 0 0 0 0 0 0 0 0 0 0 0 0 0 0 0 0 0 0 0 0 0 0 0 0 0 0 0 0 0 0 0 0
0 0 0 0 0 0 0 0 0 0 0 0 0 0 0 0 0 0 0 0 0 0 0 0 0 0 0 0 0 0 0 0 0 0 0 0 0 0 0 0 0 0 0 0
0 0 0 0 0 0 0 0 0 0 0 0 0 0 0 0 0 0 0 0 0 0 0 0 0 0 0 0 0 0 0 0 0 0 0 0 0 0 0 0 0 0 0 0
0 0 0 0 0 0 0 0 0 0 0 0 0 0 0 0 0 0 0 0 0 0 0 0 0 0 0 0 0 0 0 0 0 0 0 0 0 0 0 0 0 0 0 0
0 0 0 0 0 0 0 0 0 0 0 0 0 0 0 0 0 0 0 0 0 0 0 0 0 0 0 0 0 0 0 0 0 0 0 0 0 0 0 0 0 0 0 0
0 0 0 0 0 0 0 0 0 0 0 0 0 0 0 0 0 0 0 0 0 0 0 0 0 0 0 0 0 0 0 0 0 0 0 0 0 0 0 0 0 0 0 0
0 0 0 0 0 0 0 0 0 0 0 0 0 0 0 0 0 0 0 0 0 0 0 0 0 0 0 0 0 0 0 0 0 0 0 0 0 0 0 0 0 0 0 0
0 0 0 0 0 0 0 0 0 0 0 0 0 0 0 0 0 0 0 0 0 0 0 0 0 0 0 0 0 0 0 0 0 0 0 0 0 0 0 0 0 0 0 0
0 0 0 0 0 0 0 0 0 0 0 0 0 0 0 0 0 0 0 0 0 0 0 0 0 0 0 0 0 0 0 0 0 0 0 0 0 0 0 0 0 0 0 0
0 0 0 0 0 0 0 0 0 0 0 0 0 0 0 0 0 0 0 0 0 0 0 0 0 0 0 0 0 0 0 0 0 0 0 0 0 0 0 0 0 0 0 0
0 0 0 0 0 0 0 0 0 0 0 0 0 0 0 0 0 0 0 0 0 0 0 0 0 0 0 0 0 0 0 0 0 0 0 0 0 0 0 0 0 0 0 0
0 0 0 0 0 0 0 0 0 0 0 0 0 0 0 0 0 0 0 0 0 0 0 0 0 0 0 0 0 0 0 0 0 0 0 0 0 0 0 0 0 0 0 0
0 0 0 0 0 0 0 0 0 0 0 0 0 0 0 0 0 0 0 0 0 0 0 0 0 0 0 0 0 0 0 0 0 0 0 0 0 0 0 0 0 0 0 0
0 0 0 0 0 0 0 0 0 0 0 0 0 0 0 0 0 0 0 0 0 0 0 0 0 0 0 0 0 0 0 0 0 0 0 0 0 0 0 0 0 0 0 0
0 0 0 0 0 0 0 0 0 0 0 0 0 0 0 0 0 0 0 0 0 0 0 0 0 0 0 0 0 0 0 0 0 0 0 0 0 0 0 0 0 0 0 0
0 0 0 0 0 0 0 0 0 0 0 0 0 0 0 0 0 0 0 0 0 0 0 0 0 0 0 0 0 0 0 0 0 0 0 0 0 0 0 0 0 0 0 0
0 0 0 0 0 0 0 0 0 0 0 0 0 0 0 0 0 0 0 0 0 0 0 0 0 0 0 0 0 0 0 0 0 0 0 0 0 0 0 0 0 0 0 0
Wind_Speed
8 8 7 9 11 9 11 10 10 10 11 14 9 8 8 7 6 6 6 6 7 6 6 5 4 4 3 3 2 1 1 1 2 3 3 3 3 4 3 3 4 4 4 4
6 6 7 12 14 13 14 13 15 14 17 13 8 6 6 7 7 7 8 8 7 7 6 6 5 5 4 3 3 2 1 2 2 2 2 3 3 3 3 3 4 3 4 4
5 6 7 11 11 11 8 9 10 16 15 7 6 7 8 8 8 8 8 7 7 7 7 7 6 5 5 4 3 2 2 2 2 2 2 3 3 3 3 3 3 3 4 4
4 5 8 9 2 6 7 9 11 10 8 6 8 7 6 6 8 8 7 7 6 6 6 5 4 4 4 3 3 2 2 2 2 2 2 2 3 3 3 3 3 3 4 4
2 4 12 11 5 4 5 8 8 11 10 7 3 2 5 6 6 7 7 6 6 6 5 4 5 4 4 3 2 2 2 3 2 2 2 2 3 3 3 3 3 3 4 4
3 4 9 8 2 0 2 7 5 5 6 4 3 2 7 4 4 5 4 4 5 4 4 4 4 4 4 3 3 4 4 3 3 2 2 3 3 3 2 2 3 4 4 4
7 7 13 9 3 2 2 7 3 3 4 5 7 8 5 3 3 4 4 4 4 4 4 5 4 5 4 4 5 5 3 2 2 2 2 2 2 2 2 3 3 3 4 4
7 8 14 6 6 8 10 4 3 4 4 6 7 5 4 4 5 5 4 4 4 4 4 4 4 5 5 5 5 3 2 2 2 2 2 2 2 2 2 2 3 4 4 4
12 14 8 5 9 7 4 4 5 5 6 6 6 6 5 5 5 6 6 5 5 5 5 4 4 5 6 5 3 3 2 2 2 2 2 1 1 2 2 2 2 3 3 4
8 13 11 10 9 8 7 8 7 7 7 6 7 7 6 6 6 6 6 6 5 5 5 5 5 5 5 4 4 3 3 2 2 1 2 2 2 2 2 2 3 4 4 4
10 11 9 8 9 9 8 7 7 7 6 7 7 7 7 7 7 6 6 5 5 7 7 7 5 5 4 4 4 4 3 3 2 2 1 2 2 2 3 3 3 4 3 3
12 10 7 8 6 6 7 8 8 8 7 6 7 8 7 7 6 6 6 5 6 7 7 6 5 5 4 4 5 5 3 3 2 2 1 1 2 3 5 5 8 8 8 7
14 11 10 11 10 8 8 9 8 8 8 7 6 6 6 6 5 5 6 6 7 8 7 6 5 5 5 5 5 5 4 3 2 2 2 2 2 2 4 5 7 7 9 10
10 9 11 11 11 9 8 8 7 6 6 6 5 5 5 5 5 6 7 7 7 6 6 6 6 6 5 5 5 5 4 4 3 2 2 2 2 2 3 4 5 4 6 10
10 10 12 11 10 9 7 5 5 6 6 5 5 5 5 6 7 7 6 5 5 5 6 6 6 6 5 6 6 5 4 3 2 2 2 2 2 2 3 4 4 5 5 6
8 8 9 10 11 10 7 6 7 8 6 6 6 6 6 6 6 5 5 5 6 7 7 7 7 6 5 6 6 4 4 5 4 2 2 2 2 2 3 3 4 4 5 5
9 10 8 8 9 9 8 8 8 8 7 7 7 6 5 4 4 5 5 6 6 6 6 7 6 5 6 6 6 4 3 4 5 3 2 3 3 3 3 3 4 4 5 6
10 11 10 9 9 9 8 7 7 7 7 7 5 5 5 6 7 7 6 4 4 4 5 6 6 5 6 6 5 4 4 3 3 3 3 3 3 3 3 3 4 5 5 6
7 8 9 8 8 7 7 7 7 6 6 5 5 6 7 7 7 6 5 5 6 7 6 6 9 7 6 7 7 4 4 4 3 3 3 4 4 3 3 4 4 5 5 5
6 6 7 7 6 6 7 7 6 6 5 5 5 6 6 6 6 5 6 7 7 6 4 6 6 6 6 6 8 4 5 4 4 4 3 3 3 3 3 4 4 4 5 5
7 7 7 7 7 7 6 6 5 6 5 5 6 7 7 6 5 5 5 6 6 5 6 9 6 5 5 6 8 4 5 4 4 4 4 4 4 4 4 4 4 4 5 5
6 6 7 6 6 7 6 5 5 6 6 6 6 6 6 6 6 6 7 6 5 8 6 5 5 7 8 8 5 5 5 5 4 4 4 4 4 4 4 4 4 4 5 5
7 7 7 7 7 7 6 5 6 6 7 7 7 7 8 7 5 5 6 5 4 9 6 5 8 12 12 7 5 5 5 5 5 5 4 4 4 4 4 4 4 4 5 5
7 7 7 6 5 6 8 8 6 6 6 7 7 7 7 5 5 6 5 6 9 9 6 8 12 13 11 5 5 5 5 5 5 4 4 4 4 4 4 4 4 4 5 6
8 8 7 6 7 7 8 7 6 6 6 5 6 7 6 6 6 5 4 5 9 9 5 8 12 12 7 4 5 5 5 5 5 4 4 4 4 4 4 4 4 5 5 5
8 7 7 8 7 6 5 5 5 5 5 5 5 5 5 4 5 4 4 5 7 9 6 4 5 7 5 5 5 6 5 5 5 5 4 4 4 4 4 4 5 5 5 5
8 7 6 6 6 6 6 6 6 7 6 6 6 5 4 4 4 5 5 5 5 5 5 4 4 5 5 5 5 5 5 4 4 4 4 4 4 4 4 5 4 4 5 5
Wind_Direction
254 260 250 244 242 223 215 213 224 244 245 257 247 242 242 239 238 235 235 228 221 218 219 218 218 219 219 227 234 235 253 291 297 307 318 327 332 334 336 341 342 336 339 338
283 269 267 266 252 234 233 231 238 255 267 261 254 239 238 238 232 231 233 230 223 217 213 214 213 212 213 221 223 215 235 268 285 303 319 324 323 332 339 337 332 339 340 336
284 311 320 274 241 209 209 211 207 233 246 252 255 243 233 231 230 231 233 228 220 216 214 215 211 204 206 213 210 206 230 264 281 294 308 311 318 335 336 332 333 332 326 329
291 336 265 247 239 193 213 239 222 233 246 235 234 242 239 223 219 227 228 224 219 213 212 212 205 201 198 194 196 209 231 257 275 286 293 307 321 325 320 318 322 319 320 320
256 285 280 289 269 197 203 268 231 229 246 250 255 307 282 237 218 223 225 220 213 206 199 195 196 193 180 189 199 212 235 251 260 266 282 302 310 308 307 315 318 315 315 320
209 250 258 257 281 144 87 282 260 206 228 229 151 244 263 235 219 228 228 212 200 188 180 188 198 177 172 194 202 224 236 244 249 251 264 282 289 295 302 306 308 318 319 318
222 245 266 259 236 125 197 254 279 209 214 198 201 223 243 217 221 219 219 210 190 180 188 200 189 171 183 198 219 229 231 238 249 255 264 273 285 295 302 307 315 315 310 312
194 219 252 233 157 193 222 247 252 239 230 222 234 252 250 234 230 223 220 210 192 188 202 201 185 178 193 217 226 215 208 222 243 261 276 299 294 300 302 304 309 307 306 309
201 220 238 206 208 229 224 240 248 244 245 235 242 247 242 237 232 227 219 212 200 196 203 208 198 189 203 223 207 192 196 218 241 264 275 283 274 287 300 301 300 304 305 307
248 256 254 253 252 258 249 243 251 249 246 235 239 244 244 240 235 228 220 212 202 194 204 217 213 210 213 209 186 178 196 220 233 243 274 289 291 283 285 291 294 300 304 306
254 268 282 265 244 246 253 257 260 257 242 233 233 241 239 240 236 229 223 215 201 202 211 217 210 215 213 195 174 181 197 213 226 236 244 269 280 269 279 260 266 291 287 289
245 244 240 261 260 254 258 259 256 256 255 242 228 237 240 240 235 227 222 213 211 213 215 214 204 209 207 191 178 181 198 209 215 224 241 257 280 297 298 300 309 311 311 309
251 266 263 272 276 268 260 258 253 245 241 245 242 233 232 237 235 227 224 215 215 216 214 206 201 208 205 189 181 184 196 205 210 216 228 253 271 288 304 313 313 317 319 318
257 268 272 269 270 271 265 264 258 251 245 240 240 238 232 235 237 231 228 222 216 210 207 203 203 214 205 185 183 189 196 210 210 214 224 238 256 270 281 297 309 308 312 318
257 244 255 271 277 277 270 264 261 259 255 254 242 234 229 230 235 236 231 213 199 203 208 203 208 217 195 182 185 190 193 202 206 210 223 236 251 264 272 282 290 299 305 314
274 272 266 267 271 273 268 257 254 256 251 247 245 239 235 234 239 240 222 192 193 210 211 205 214 213 188 182 185 189 200 213 210 208 219 235 248 261 271 280 289 294 300 308
271 277 273 272 273 272 264 252 248 252 251 246 244 243 239 236 238 235 226 211 210 216 210 208 212 198 186 184 184 190 194 209 218 220 221 232 245 255 267 276 282 288 293 302
247 254 260 263 270 275 275 265 255 252 248 247 246 235 227 223 228 232 224 207 207 226 225 216 204 190 188 187 186 186 187 194 201 216 225 233 245 250 262 272 280 288 295 303
267 267 269 265 262 261 264 264 260 255 253 244 235 234 234 233 232 227 206 197 209 231 233 210 200 192 192 196 188 182 185 195 208 218 224 245 254 252 259 267 275 282 290 297
282 280 275 272 268 257 260 263 259 257 251 234 233 239 244 241 228 213 207 219 225 226 207 194 193 193 195 199 192 181 190 201 210 217 223 229 241 251 255 264 273 279 285 289
288 284 280 278 279 271 261 258 256 256 253 232 227 236 241 241 221 205 210 237 237 204 198 201 197 197 195 197 195 186 193 202 210 216 221 229 240 248 253 260 270 278 283 287
282 279 278 277 278 281 274 258 249 252 253 244 239 237 237 238 227 222 225 231 223 197 192 196 196 201 201 199 190 190 197 203 210 214 220 227 235 245 253 259 265 273 278 281
270 268 269 268 267 271 277 267 252 246 246 242 237 232 231 232 218 218 241 228 204 204 197 199 205 208 208 198 189 193 199 204 209 214 220 224 231 240 249 257 262 268 274 279
269 267 263 262 259 264 271 268 256 248 246 246 240 232 228 233 237 230 230 214 205 206 204 208 210 211 207 191 189 196 201 206 211 215 219 223 228 235 244 252 260 266 269 275
263 262 260 258 258 258 258 262 263 257 249 251 247 237 227 223 230 231 211 210 211 211 210 213 212 210 199 187 194 200 203 207 210 210 212 219 226 234 242 247 253 261 266 270
260 259 256 249 249 255 253 247 251 253 245 253 255 240 229 224 223 219 212 210 211 211 207 204 203 204 194 193 198 202 204 215 225 219 215 220 227 233 242 248 253 258 264 268
261 258 259 262 256 243 238 236 242 247 240 238 249 242 223 217 213 213 212 210 208 207 201 195 193 193 192 194 198 202 203 205 209 212 214 219 225 232 240 246 253 259 265 270